Time,TemperatureF,DewpointF,PressureIn,WindDirection,WindDirectionDegrees,WindSpeedMPH,WindSpeedGustMPH,Humidity,HourlyPrecipIn,Conditions,Clouds,dailyrainin,SoftwareType,DateUTC
2013-02-13 00:02:00,47.1,43.1,30.42,SW,229,0.0,3.0,86,0.00,-RA,FEW,0.00,WeatherDisplay:10.37,2013-02-13 08:02:00,
2013-02-13 00:17:00,47.0,43.1,30.43,SSW,200,0.0,6.0,86,0.00,-RA,FEW,0.00,WeatherDisplay:10.37,2013-02-13 08:17:00,
2013-02-13 00:32:00,46.9,43.0,30.43,SW,219,1.0,7.0,86,0.02,-RA,FEW,0.02,WeatherDisplay:10.37,2013-02-13 08:32:00,
2013-02-13 00:47:00,47.0,43.0,30.43,SSW,196,0.0,3.0,86,0.00,-RA,FEW,0.02,WeatherDisplay:10.37,2013-02-13 08:47:00,
2013-02-13 01:02:00,46.9,43.0,30.43,SSW,209,0.0,3.0,86,0.02,-RA,FEW,0.04,WeatherDisplay:10.37,2013-02-13 09:02:00,
2013-02-13 01:17:00,46.9,43.0,30.43,SSW,205,1.0,6.0,86,0.00,-RA,FEW,0.04,WeatherDisplay:10.37,2013-02-13 09:17:00,
2013-02-13 01:32:00,47.0,43.0,30.43,SSW,205,0.0,5.0,86,0.00,-RA,FEW,0.04,WeatherDisplay:10.37,2013-02-13 09:32:00,
2013-02-13 01:47:00,47.1,43.1,30.42,SW,217,1.0,6.0,86,0.00,-RA,FEW,0.04,WeatherDisplay:10.37,2013-02-13 09:47:00,
2013-02-13 02:02:00,47.1,43.1,30.42,SW,223,2.0,7.0,86,0.00,-RA,FEW,0.04,WeatherDisplay:10.37,2013-02-13 10:02:00,
2013-02-13 02:17:00,47.1,43.1,30.43,SW,216,1.0,7.0,86,0.00,-RA,FEW,0.04,WeatherDisplay:10.37,2013-02-13 10:17:00,
2013-02-13 02:32:00,47.3,43.3,30.42,SW,225,2.0,7.0,86,0.00,-RA,FEW,0.04,WeatherDisplay:10.37,2013-02-13 10:32:00,
2013-02-13 02:47:00,47.3,43.3,30.42,SW,220,0.0,5.0,86,0.02,-RA,FEW,0.07,WeatherDisplay:10.37,2013-02-13 10:47:00,
2013-02-13 03:02:00,47.3,43.3,30.42,SW,216,0.0,3.0,86,0.00,-RA,FEW,0.07,WeatherDisplay:10.37,2013-02-13 11:02:00,
2013-02-13 03:17:00,47.5,43.5,30.42,WSW,247,1.0,6.0,86,0.02,-RA,FEW,0.09,WeatherDisplay:10.37,2013-02-13 11:17:00,
2013-02-13 03:32:00,47.3,43.4,30.43,West,266,1.0,11.0,86,0.02,-RA,FEW,0.11,WeatherDisplay:10.37,2013-02-13 11:32:00,
2013-02-13 03:47:00,47.0,43.0,30.43,SW,232,1.0,8.0,86,0.00,-RA,FEW,0.11,WeatherDisplay:10.37,2013-02-13 11:47:00,
2013-02-13 04:02:00,46.6,42.6,30.43,SW,224,1.0,6.0,86,0.00,-RA,FEW,0.11,WeatherDisplay:10.37,2013-02-13 12:02:00,
2013-02-13 04:17:00,46.2,42.3,30.44,WSW,251,0.0,3.0,86,0.00,-RA,FEW,0.11,WeatherDisplay:10.37,2013-02-13 12:17:00,
2013-02-13 04:32:00,46.2,42.3,30.44,WSW,243,2.0,5.0,86,0.02,-RA,FEW,0.13,WeatherDisplay:10.37,2013-02-13 12:32:00,
2013-02-13 04:47:00,45.7,41.7,30.45,SW,236,1.0,8.0,86,0.00,-RA,FEW,0.13,WeatherDisplay:10.37,2013-02-13 12:47:00,
2013-02-13 05:02:00,45.3,41.4,30.45,WSW,241,1.0,5.0,86,0.00,OVC,FEW,0.13,WeatherDisplay:10.37,2013-02-13 13:02:00,
2013-02-13 05:17:00,45.1,41.2,30.45,South,190,0.0,3.0,86,0.00,OVC,FEW,0.13,WeatherDisplay:10.37,2013-02-13 13:17:00,
2013-02-13 05:32:00,45.0,41.0,30.45,SSW,202,0.0,5.0,86,0.00,OVC,FEW,0.13,WeatherDisplay:10.37,2013-02-13 13:32:00,
2013-02-13 05:47:00,44.8,40.8,30.45,SSE,165,0.0,4.0,86,0.00,OVC,FEW,0.13,WeatherDisplay:10.37,2013-02-13 13:47:00,
2013-02-13 06:02:00,44.4,40.5,30.46,South,189,0.0,1.0,86,0.00,OVC,FEW,0.13,WeatherDisplay:10.37,2013-02-13 14:02:00,
2013-02-13 06:17:00,44.4,40.5,30.46,South,175,0.0,2.0,86,0.02,RA,FEW,0.16,WeatherDisplay:10.37,2013-02-13 14:17:00,
2013-02-13 06:32:00,44.2,40.3,30.46,SSE,167,1.0,5.0,86,0.00,OVC,FEW,0.16,WeatherDisplay:10.37,2013-02-13 14:32:00,
2013-02-13 06:47:00,44.1,40.1,30.45,SSW,201,0.0,3.0,86,0.00,OVC,FEW,0.16,WeatherDisplay:10.37,2013-02-13 14:47:00,
2013-02-13 07:02:00,43.9,40.0,30.45,South,176,0.0,2.0,86,0.00,OVC,FEW,0.16,WeatherDisplay:10.37,2013-02-13 15:02:00,
2013-02-13 07:17:00,43.7,39.8,30.45,SSW,200,0.0,0.0,86,0.00,OVC,FEW,0.16,WeatherDisplay:10.37,2013-02-13 15:17:00,
2013-02-13 07:32:00,43.5,39.6,30.45,SSW,210,0.0,2.0,86,0.00,OVC,FEW,0.16,WeatherDisplay:10.37,2013-02-13 15:32:00,
2013-02-13 07:47:00,43.5,39.6,30.45,SSW,203,0.0,0.0,86,0.00,OVC,FEW,0.16,WeatherDisplay:10.37,2013-02-13 15:47:00,
2013-02-13 08:02:00,43.5,39.6,30.46,SSW,206,0.0,1.0,86,0.00,OVC,FEW,0.16,WeatherDisplay:10.37,2013-02-13 16:02:00,
2013-02-13 08:17:00,43.7,39.8,30.46,SSW,194,0.0,1.0,86,0.00,OVC,FEW,0.16,WeatherDisplay:10.37,2013-02-13 16:17:00,
2013-02-13 08:32:00,44.0,40.1,30.46,SW,214,0.0,2.0,86,0.00,OVC,FEW,0.16,WeatherDisplay:10.37,2013-02-13 16:32:00,
2013-02-13 08:47:00,44.4,40.5,30.47,South,191,0.0,1.0,86,0.00,OVC,FEW,0.16,WeatherDisplay:10.37,2013-02-13 16:47:00,
2013-02-13 09:02:00,44.8,40.9,30.48,SSW,196,0.0,2.0,86,0.00,OVC,FEW,0.16,WeatherDisplay:10.37,2013-02-13 17:02:00,
2013-02-13 09:17:00,45.2,41.3,30.48,SSW,193,0.0,3.0,86,0.00,OVC,FEW,0.16,WeatherDisplay:10.37,2013-02-13 17:17:00,
2013-02-13 09:32:00,46.0,42.0,30.48,SSW,201,1.0,3.0,86,0.00,OVC,FEW,0.16,WeatherDisplay:10.37,2013-02-13 17:32:00,
2013-02-13 09:47:00,46.8,42.8,30.47,South,185,0.0,2.0,86,0.00,OVC,FEW,0.16,WeatherDisplay:10.37,2013-02-13 17:47:00,
2013-02-13 10:02:00,47.4,43.4,30.48,SW,216,1.0,3.0,86,0.00,OVC,FEW,0.16,WeatherDisplay:10.37,2013-02-13 18:02:00,
2013-02-13 10:17:00,48.0,44.3,30.48,SW,219,1.0,7.0,87,0.00,OVC,FEW,0.16,WeatherDisplay:10.37,2013-02-13 18:17:00,
2013-02-13 10:32:00,48.6,44.6,30.48,SW,224,0.0,4.0,86,0.00,OVC,FEW,0.16,WeatherDisplay:10.37,2013-02-13 18:32:00,
2013-02-13 10:47:00,49.1,45.1,30.48,SSW,213,0.0,5.0,86,0.00,OVC,FEW,0.16,WeatherDisplay:10.37,2013-02-13 18:47:00,
2013-02-13 11:02:00,50.0,45.6,30.48,SSW,204,1.0,7.0,85,0.00,OVC,FEW,0.16,WeatherDisplay:10.37,2013-02-13 19:02:00,
2013-02-13 11:17:00,50.7,46.4,30.48,SSW,207,0.0,7.0,85,0.00,OVC,FEW,0.16,WeatherDisplay:10.37,2013-02-13 19:17:00,
2013-02-13 11:32:00,50.7,45.7,30.48,SW,236,0.0,6.0,83,0.00,OVC,FEW,0.16,WeatherDisplay:10.37,2013-02-13 19:32:00,
2013-02-13 11:47:00,50.9,45.6,30.48,WSW,242,1.0,5.0,82,0.00,OVC,FEW,0.16,WeatherDisplay:10.37,2013-02-13 19:47:00,
2013-02-13 12:02:00,51.0,45.4,30.48,West,266,1.0,6.0,81,0.00,BKN,FEW,0.16,WeatherDisplay:10.37,2013-02-13 20:02:00,
2013-02-13 12:17:00,50.4,44.1,30.48,WNW,286,2.0,5.0,79,0.00,BKN,FEW,0.16,WeatherDisplay:10.37,2013-02-13 20:17:00,
2013-02-13 12:32:00,50.0,43.8,30.48,West,268,2.0,6.0,79,0.00,BKN,FEW,0.16,WeatherDisplay:10.37,2013-02-13 20:32:00,
2013-02-13 12:47:00,50.4,43.8,30.47,West,272,2.0,5.0,78,0.00,BKN,FEW,0.16,WeatherDisplay:10.37,2013-02-13 20:47:00,
2013-02-13 13:02:00,50.5,43.9,30.47,WNW,289,1.0,6.0,78,0.00,OVC,FEW,0.16,WeatherDisplay:10.37,2013-02-13 21:02:00,
2013-02-13 13:17:00,50.5,43.6,30.46,WNW,285,1.0,7.0,77,0.00,OVC,FEW,0.16,WeatherDisplay:10.37,2013-02-13 21:17:00,
2013-02-13 13:32:00,50.9,43.9,30.46,WSW,251,0.0,7.0,77,0.00,OVC,FEW,0.16,WeatherDisplay:10.37,2013-02-13 21:32:00,
2013-02-13 13:47:00,51.1,43.8,30.46,West,276,2.0,7.0,76,0.00,OVC,FEW,0.16,WeatherDisplay:10.37,2013-02-13 21:47:00,
2013-02-13 14:02:00,51.0,43.4,30.45,WNW,295,1.0,6.0,75,0.00,OVC,FEW,0.16,WeatherDisplay:10.37,2013-02-13 22:02:00,
2013-02-13 14:17:00,51.8,44.1,30.45,West,272,3.0,6.0,75,0.00,OVC,FEW,0.16,WeatherDisplay:10.37,2013-02-13 22:17:00,
2013-02-13 14:32:00,52.0,43.9,30.45,WNW,282,2.0,6.0,74,0.00,OVC,FEW,0.16,WeatherDisplay:10.37,2013-02-13 22:32:00,
2013-02-13 14:47:00,51.4,43.4,30.45,WNW,299,2.0,5.0,74,0.00,OVC,FEW,0.16,WeatherDisplay:10.37,2013-02-13 22:47:00,
2013-02-13 15:02:00,50.7,42.7,30.46,NW,306,1.0,6.0,74,0.00,OVC,FEW,0.16,WeatherDisplay:10.37,2013-02-13 23:02:00,
2013-02-13 15:17:00,50.2,42.2,30.46,WNW,289,2.0,6.0,74,0.00,OVC,FEW,0.16,WeatherDisplay:10.37,2013-02-13 23:17:00,
2013-02-13 15:32:00,49.8,41.8,30.46,WNW,286,2.0,7.0,74,0.00,OVC,FEW,0.16,WeatherDisplay:10.37,2013-02-13 23:32:00,
2013-02-13 15:47:00,49.3,41.3,30.46,West,279,2.0,8.0,74,0.00,OVC,FEW,0.16,WeatherDisplay:10.37,2013-02-13 23:47:00,
2013-02-13 16:02:00,48.9,41.3,30.46,West,275,2.0,6.0,75,0.00,BKN,FEW,0.16,WeatherDisplay:10.37,2013-02-14 00:02:00,
2013-02-13 16:17:00,48.7,41.2,30.46,West,274,2.0,6.0,75,0.00,BKN,FEW,0.16,WeatherDisplay:10.37,2013-02-14 00:17:00,
2013-02-13 16:32:00,48.0,40.8,30.45,West,263,1.0,5.0,76,0.00,BKN,FEW,0.16,WeatherDisplay:10.37,2013-02-14 00:32:00,
2013-02-13 16:47:00,47.8,41.0,30.46,West,267,2.0,4.0,77,0.00,BKN,FEW,0.16,WeatherDisplay:10.37,2013-02-14 00:47:00,
2013-02-13 17:02:00,47.1,40.3,30.47,West,279,2.0,5.0,77,0.00,SCT,FEW,0.16,WeatherDisplay:10.37,2013-02-14 01:02:00,
2013-02-13 17:17:00,46.2,39.7,30.48,West,280,1.0,3.0,78,0.00,SCT,FEW,0.16,WeatherDisplay:10.37,2013-02-14 01:17:00,
2013-02-13 17:32:00,45.3,38.9,30.47,SSW,194,0.0,2.0,78,0.00,SCT,FEW,0.16,WeatherDisplay:10.37,2013-02-14 01:32:00,
2013-02-13 17:47:00,44.2,38.1,30.47,East,80,0.0,0.0,79,0.00,SCT,FEW,0.16,WeatherDisplay:10.37,2013-02-14 01:47:00,
2013-02-13 18:02:00,43.0,36.9,30.47,ESE,112,0.0,0.0,79,0.00,BKN,FEW,0.16,WeatherDisplay:10.37,2013-02-14 02:02:00,
2013-02-13 18:17:00,42.4,36.7,30.48,ESE,112,0.0,0.0,80,0.00,BKN,FEW,0.16,WeatherDisplay:10.37,2013-02-14 02:17:00,
2013-02-13 18:32:00,41.9,36.5,30.48,ESE,112,0.0,0.0,81,0.00,BKN,FEW,0.16,WeatherDisplay:10.37,2013-02-14 02:32:00,
2013-02-13 18:47:00,41.7,36.3,30.48,ESE,112,0.0,0.0,81,0.00,BKN,FEW,0.16,WeatherDisplay:10.37,2013-02-14 02:47:00,
2013-02-13 19:02:00,41.5,36.1,30.48,ESE,112,0.0,0.0,81,0.00,OVC,FEW,0.16,WeatherDisplay:10.37,2013-02-14 03:02:00,
2013-02-13 19:17:00,41.2,36.1,30.48,ESE,112,0.0,0.0,82,0.00,OVC,FEW,0.16,WeatherDisplay:10.37,2013-02-14 03:17:00,
2013-02-13 19:32:00,40.3,34.9,30.49,ESE,112,0.0,0.0,81,0.00,OVC,FEW,0.16,WeatherDisplay:10.37,2013-02-14 03:32:00,
2013-02-13 19:47:00,39.5,34.5,30.49,ESE,112,0.0,0.0,82,0.00,OVC,FEW,0.16,WeatherDisplay:10.37,2013-02-14 03:47:00,
2013-02-13 20:02:00,38.8,33.8,30.49,ESE,112,0.0,0.0,82,0.00,BKN,FEW,0.16,WeatherDisplay:10.37,2013-02-14 04:02:00,
2013-02-13 20:17:00,38.1,33.1,30.50,ESE,112,0.0,0.0,82,0.00,BKN,FEW,0.16,WeatherDisplay:10.37,2013-02-14 04:17:00,
2013-02-13 20:32:00,37.7,33.0,30.49,ESE,112,0.0,0.0,83,0.00,BKN,FEW,0.16,WeatherDisplay:10.37,2013-02-14 04:32:00,
2013-02-13 20:47:00,37.0,32.4,30.50,ESE,112,0.0,0.0,83,0.00,BKN,FEW,0.16,WeatherDisplay:10.37,2013-02-14 04:47:00,
2013-02-13 21:02:00,36.7,32.0,30.50,ESE,112,0.0,0.0,83,0.00,OVC,FEW,0.16,WeatherDisplay:10.37,2013-02-14 05:02:00,
2013-02-13 21:17:00,36.1,31.5,30.50,ESE,112,0.0,0.0,83,0.00,OVC,FEW,0.16,WeatherDisplay:10.37,2013-02-14 05:17:00,
2013-02-13 21:32:00,35.8,31.1,30.51,ESE,112,0.0,0.0,83,0.00,OVC,FEW,0.16,WeatherDisplay:10.37,2013-02-14 05:32:00,
2013-02-13 21:47:00,35.4,30.8,30.51,ESE,112,0.0,0.0,83,0.00,OVC,FEW,0.16,WeatherDisplay:10.37,2013-02-14 05:47:00,
2013-02-13 22:02:00,35.4,31.1,30.51,ESE,112,0.0,0.0,84,0.00,OVC,FEW,0.16,WeatherDisplay:10.37,2013-02-14 06:02:00,
2013-02-13 22:17:00,35.9,31.6,30.51,ESE,112,0.0,0.0,84,0.00,OVC,FEW,0.16,WeatherDisplay:10.37,2013-02-14 06:17:00,
2013-02-13 22:32:00,36.4,32.0,30.51,ESE,112,0.0,0.0,84,0.00,OVC,FEW,0.16,WeatherDisplay:10.37,2013-02-14 06:32:00,
2013-02-13 22:47:00,37.0,32.7,30.52,ESE,112,0.0,0.0,84,0.00,OVC,FEW,0.16,WeatherDisplay:10.37,2013-02-14 06:47:00,
2013-02-13 23:02:00,37.6,33.2,30.52,ESE,117,0.0,0.0,84,0.00,OVC,FEW,0.16,WeatherDisplay:10.37,2013-02-14 07:02:00,
2013-02-13 23:17:00,38.3,34.2,30.52,North,3,0.0,0.0,85,0.00,OVC,FEW,0.16,WeatherDisplay:10.37,2013-02-14 07:17:00,
2013-02-13 23:32:00,38.8,34.7,30.52,NE,45,0.0,0.0,85,0.00,OVC,FEW,0.16,WeatherDisplay:10.37,2013-02-14 07:32:00,
2013-02-13 23:47:00,39.0,34.9,30.53,SSE,158,0.0,0.0,85,0.00,OVC,FEW,0.16,WeatherDisplay:10.37,2013-02-14 07:47:00,